Вернуться в каталог

CZ-6A DEB

АктивенPO
NORAD 60768·DEBRIS·🇨🇳 China

Запущен Aug 6, 2024 с Taiyuan Satellite Launch Center

Loading…

Ближайшие Пролёты (ближайшие 24 часа)

TLE

СвежийSource: Space-Track

Эпоха: Sep 14, 2026, 18:18 UTC

1 60768U 24140ET  26257.76270396  .00002531  00000-0  50528-3 0  9994
2 60768  89.0866 267.9959 0109761 316.1967  43.0576 14.57887554111046

Отслеживайте CZ-6A DEB в реальном времени с AllMySat

Download on the App Store